This demonstration page uses our WeatherBlox Daily Observations layout. Learn more.

Left ArrowRight Arrow

Hourly Observations for August 2, 2019

Temp ( °F °C ) Dew Point ( °F °C ) Humidity (%) Winds ( mph kmh ) Pressure ( in mb ) Visibility ( mi km ) Precip ( " mm )
12:56 am 00:56 Partly Cloudy 73 23 66 19 78 78 ESE 6 9 30.10 1019 10 16 0.00 0.00
1:56 am 01:56 Partly Cloudy 73 23 64 18 74 74 E 8 13 30.09 1019 10 16 0.00 0.00
2:56 am 02:56 Mostly Cloudy 72 22 64 18 78 78 E 8 13 30.07 1018 10 16 0.00 0.00
3:56 am 03:56 Mostly Cloudy 72 22 63 17 73 73 ESE 7 11 30.09 1019 10 16 0.00 0.00
4:56 am 04:56 Mostly Clear N/A N/A N/A E 8 13 N/A 10 16 0.00 0.00
5:56 am 05:56 Mostly Cloudy N/A N/A N/A ESE 8 13 N/A 10 16 0.00 0.00
6:56 am 06:56 Mostly Cloudy 70 21 61 16 73 73 E 8 13 30.10 1019 10 16 0.00 0.00
7:56 am 07:56 Mostly Sunny 70 21 61 16 73 73 ESE 8 13 30.11 1020 10 16 0.00 0.00
8:56 am 08:56 Mostly Sunny 72 22 61 16 69 69 ESE 9 15 30.09 1019 10 16 0.00 0.00
9:56 am 09:56 Mostly Sunny 73 23 59 15 61 61 E 7 11 30.08 1019 10 16 0.00 0.00
10:56 am 10:56 Mostly Sunny 73 23 61 16 65 65 ESE 7 11 30.09 1019 10 16 0.00 0.00
11:56 am 11:56 Mostly Sunny 75 24 63 17 65 65 E 8 13 30.08 1019 10 16 0.00 0.00
12:56 pm 12:56 Partly Cloudy 77 25 63 17 61 61 SE 7 11 30.07 1018 10 16 0.00 0.00
1:56 pm 13:56 Mostly Cloudy 77 25 64 18 65 65 S 6 9 30.09 1019 10 16 0.00 0.00
2:56 pm 14:56 Mostly Sunny 77 25 64 18 65 65 SSE 3 6 30.08 1019 10 16 0.00 0.00
3:56 pm 15:56 Mostly Cloudy 81 27 66 19 62 62 SE 3 6 30.06 1018 10 16 0.00 0.00
4:56 pm 16:56 Mostly Cloudy 79 26 66 19 65 65 Calm 30.06 1018 10 16 0.00 0.00
5:56 pm 17:56 Mostly Cloudy 79 26 66 19 65 65 E 7 11 30.05 1018 10 16 0.00 0.00
6:56 pm 18:56 Mostly Cloudy 79 26 66 19 65 65 ESE 8 13 30.04 1017 10 16 0.00 0.00
7:56 pm 19:56 Mostly Cloudy 77 25 66 19 69 69 ESE 6 9 30.03 1017 10 16 0.00 0.00
8:56 pm 20:56 Mostly Cloudy 77 25 64 18 65 65 Calm 30.04 1017 10 16 0.00 0.00
9:56 pm 21:56 Mostly Cloudy 75 24 64 18 69 69 Calm 30.05 1018 10 16 0.00 0.00
10:56 pm 22:56 Mostly Cloudy 73 23 64 18 74 74 ESE 3 6 30.07 1018 10 16 0.00 0.00
11:56 pm 23:56 Mostly Cloudy 73 23 64 18 74 74 E 3 6 30.08 1019 10 16 0.00 0.00

Powered by AerisWeather